This is the latest recevied weather packets stored in our database for station/object KC1IUC-13. If no packets are shown the sender has not sent any weather packets the latest 1 day(s).
| Time | Temp. | Humidity | Pressure | Rain* | Wind** | Luminosity | Snow |
|---|---|---|---|---|---|---|---|
| 1778002023 | 27.78° C | 48% | 1004.9 hPa | 0 mm | 1.34 m/s, 176° | 128 W/m² | - |
| 1778001483 | 28.33° C | 48% | 1004.9 hPa | 0 mm | 1.34 m/s, 183° | 285 W/m² | - |
| 1778000944 | 28.33° C | 50% | 1004.9 hPa | 0 mm | 1.34 m/s, 188° | 343 W/m² | - |
| 1778000403 | 28.33° C | 51% | 1005.6 hPa | 0 mm | 1.34 m/s, 167° | 268 W/m² | - |
| 1778000044 | 28.33° C | 52% | 1005.2 hPa | 0 mm | 1.34 m/s, 181° | 239 W/m² | - |
| 1777999503 | 27.78° C | 52% | 1005.6 hPa | 0 mm | 1.34 m/s, 175° | 745 W/m² | - |
| 1777998963 | 27.78° C | 54% | 1005.9 hPa | 0 mm | 1.34 m/s, 174° | 384 W/m² | - |
| 1777998424 | 27.78° C | 54% | 1005.6 hPa | 0 mm | 1.79 m/s, 173° | 667 W/m² | - |
| 1777997884 | 27.78° C | 56% | 1005.9 hPa | 0 mm | 1.34 m/s, 156° | 535 W/m² | - |
| 1777997343 | 27.22° C | 57% | 1005.9 hPa | 0 mm | 1.34 m/s, 173° | 273 W/m² | - |
| 1777996803 | 26.67° C | 59% | 1005.9 hPa | 0 mm | 1.34 m/s, 173° | 611 W/m² | - |
| 1777996443 | 26.11° C | 59% | 1006.3 hPa | 0 mm | 1.34 m/s, 167° | 582 W/m² | - |
| 1777995903 | 26.11° C | 62% | 1006.3 hPa | 0 mm | 0.89 m/s, 174° | 664 W/m² | - |
| 1777995364 | 25.56° C | 62% | 1006.3 hPa | 0 mm | 0.89 m/s, 155° | 81 W/m² | - |
| 1777994823 | 25° C | 63% | 1006.3 hPa | 0 mm | 0.89 m/s, 154° | 68 W/m² | - |
| 1777994283 | 24.44° C | 65% | 1006.6 hPa | 0 mm | 0.89 m/s, 208° | 78 W/m² | - |
| 1777993744 | 24.44° C | 66% | 1007 hPa | 0 mm | 0.89 m/s, 183° | 115 W/m² | - |
| 1777993203 | 23.89° C | 68% | 1007 hPa | 0 mm | 1.34 m/s, 172° | 69 W/m² | - |
| 1777992844 | 23.33° C | 69% | 1007 hPa | 0 mm | 1.34 m/s, 162° | 64 W/m² | - |
| 1777992304 | 22.78° C | 70% | 1007 hPa | 0 mm | 0.89 m/s, 165° | 57 W/m² | - |
| 1777991764 | 22.22° C | 71% | 1007 hPa | 0 mm | 0.89 m/s, 148° | 57 W/m² | - |
| 1777991223 | 21.67° C | 72% | 1007.3 hPa | 0 mm | 0.89 m/s, 155° | 70 W/m² | - |
| 1777990683 | 21.11° C | 73% | 1007 hPa | 0 mm | 0.89 m/s, 179° | 69 W/m² | - |
| 1777990143 | 20.56° C | 74% | 1007 hPa | 0 mm | 0.89 m/s, 191° | 59 W/m² | - |
| 1777989603 | 20° C | 75% | 1007 hPa | 0 mm | 0.89 m/s, 188° | 94 W/m² | - |
* Rain latest hour (hover to see other rain measurements)
** Current wind speed in m/s (hover to see current wind gust speed)